Lapse_Rate
4.9 5.6 6.7 8.2 6.6 6.5 6.5 6.5 6.5 6.5 6.5 7.5 7.7 7.1 6.7 7.4 6.6 6.5 9.3 7.5 7.2 7.6 7.1 7.9 6.3 6.7 6.9 6.6 6.3 6.1 6.1 6.1 6.2 6.3 6.1 5.9 5.9 5.9 5.8 5.7 5.6 5.5 5.9 6.4 6.6 6.8 6.3 5.9 5.8
6.3 6.6 7.8 7.8 6.5 6.5 6.5 6.5 6.5 6.5 7.2 7.9 7.8 7.6 7.1 6.6 8.4 8.6 9.0 7.7 7.6 7.5 7.3 6.5 5.4 6.0 6.5 6.3 6.2 6.1 6.1 6.3 6.2 6.2 6.1 5.9 5.7 5.8 5.8 5.9 6.0 5.8 5.8 5.8 5.8 6.1 6.7 6.2 5.8
6.7 6.3 7.7 6.5 6.5 6.5 6.5 6.5 6.5 7.1 7.7 7.5 7.3 8.0 7.6 7.3 8.5 8.9 8.3 8.0 8.0 8.1 7.2 5.6 5.3 5.3 5.4 5.8 5.7 5.8 5.9 6.2 6.2 6.3 6.3 6.0 6.0 6.1 6.1 6.0 6.0 6.1 5.7 5.5 5.6 5.8 6.1 6.0 5.8
7.9 7.6 7.8 6.5 6.5 6.5 6.5 6.5 6.9 7.0 7.5 7.8 7.7 6.8 8.2 8.7 8.8 9.2 7.9 8.1 8.6 8.2 7.0 5.2 4.6 4.8 4.7 4.8 4.9 5.1 5.3 5.5 5.7 6.0 6.2 6.4 6.4 6.3 6.1 6.0 5.9 5.7 5.7 5.5 5.6 5.7 6.0 6.0 5.8
7.6 8.0 6.5 6.5 6.5 6.5 6.5 7.1 7.3 6.5 7.0 7.4 7.6 6.8 7.4 8.6 8.0 7.7 7.4 7.2 7.3 7.2 6.1 5.3 3.5 3.4 3.9 3.9 3.8 4.0 4.4 5.0 5.4 5.7 6.0 6.3 6.5 6.6 6.6 6.2 5.8 5.8 6.0 5.9 6.0 5.9 6.3 6.0 6.0
7.4 7.5 6.5 6.5 6.5 6.5 6.7 7.4 7.3 7.0 7.3 7.5 7.3 7.3 7.6 8.7 8.9 6.7 6.5 6.1 5.0 5.2 4.4 4.5 3.9 3.0 3.0 2.9 3.3 3.6 4.0 4.8 5.1 5.1 5.3 5.5 5.6 5.9 6.2 6.3 6.1 6.0 6.1 6.0 6.1 6.2 6.0 5.8 5.8
6.8 6.5 6.5 6.5 6.5 6.5 6.5 7.7 7.0 6.9 7.1 7.1 8.0 6.5 8.0 8.6 7.0 6.2 6.2 5.9 4.9 4.2 4.2 4.2 4.1 3.7 4.0 2.9 2.2 2.6 3.3 4.0 4.5 4.9 4.8 4.6 4.7 5.1 5.5 5.6 5.7 5.8 6.0 6.0 6.1 6.1 6.0 5.9 5.8
7.5 6.5 6.5 6.5 6.5 6.5 6.9 7.3 7.6 7.3 6.9 8.3 8.3 6.7 7.0 8.7 6.9 6.3 5.9 5.9 5.5 4.8 4.3 4.0 3.9 3.9 4.0 4.5 2.3 2.2 2.6 2.8 3.3 3.9 4.5 4.9 5.5 5.5 5.5 5.4 6.0 5.1 5.2 5.2 5.3 5.7 5.9 5.9 5.9
6.0 6.5 6.5 6.5 6.5 6.5 7.4 6.6 7.7 7.9 7.7 7.9 8.1 8.1 8.6 7.4 7.0 6.7 6.4 6.0 6.1 5.6 5.0 4.1 3.9 3.9 3.7 4.2 3.5 3.4 3.5 3.0 3.8 4.7 4.7 6.2 7.2 6.6 6.3 5.9 5.1 4.5 4.8 5.1 5.2 5.4 5.5 5.7 5.8
6.8 6.5 6.5 6.6 6.6 6.5 7.1 7.0 7.3 7.2 7.3 7.3 7.8 8.1 7.5 7.3 7.4 6.8 6.6 6.2 5.7 5.3 5.0 4.5 3.9 3.8 3.9 4.4 4.1 4.4 4.4 4.4 4.8 4.9 5.1 6.6 6.9 7.1 5.6 5.4 4.5 4.8 5.0 5.1 5.3 5.2 5.2 5.2 8.3
6.9 6.5 6.5 6.8 7.2 7.4 7.0 7.0 7.6 7.0 6.5 7.3 7.4 8.0 7.9 7.1 6.8 6.5 5.5 5.2 4.9 4.7 5.0 4.5 4.0 3.5 3.8 3.9 4.0 4.9 4.9 4.8 5.1 5.0 4.7 5.3 5.9 6.4 7.4 8.0 8.1 7.0 5.9 6.8 7.7 8.4 8.7 9.3 9.1
6.5 6.9 6.9 7.0 7.3 7.2 6.8 7.4 7.0 7.2 7.2 8.1 8.3 8.4 7.9 7.7 7.4 6.3 6.1 5.6 5.3 5.1 4.6 4.3 4.0 3.8 3.6 3.8 4.4 4.8 5.2 4.4 4.9 4.7 4.6 4.9 5.8 5.9 6.5 7.5 8.4 8.6 8.3 7.5 6.7 6.4 7.8 8.1 8.5
6.5 6.7 7.2 7.4 7.3 7.3 7.4 6.9 6.9 7.1 7.7 8.3 7.9 7.6 8.2 7.7 6.4 5.7 5.6 5.5 5.4 5.1 4.4 3.9 3.8 3.9 3.6 4.0 4.1 4.6 5.0 5.1 4.7 4.8 4.8 4.7 5.4 6.1 6.4 7.3 7.9 8.8 9.4 9.3 9.0 7.5 6.8 6.1 6.8
7.1 7.0 7.0 7.2 7.2 7.2 6.7 6.9 7.1 7.4 7.8 7.6 7.9 8.0 7.8 7.7 7.0 5.9 5.9 5.9 5.7 5.1 4.7 4.2 4.2 3.4 3.4 4.1 4.1 4.4 4.8 4.8 4.4 3.6 3.9 5.0 5.6 5.9 6.7 7.4 9.3 9.5 9.6 9.6 9.6 9.6 9.3 8.3 6.7
7.2 6.5 6.5 6.8 7.0 6.7 7.2 6.5 6.5 7.6 7.8 7.6 7.8 7.9 7.7 7.4 6.4 8.1 5.6 5.5 5.4 5.3 4.6 4.3 3.9 3.2 3.6 4.5 4.7 4.9 4.7 4.3 3.9 2.9 2.4 3.0 4.0 5.2 5.2 6.2 7.1 8.7 9.5 9.6 9.6 9.8 8.7 7.6 7.9
6.5 6.5 6.5 6.5 6.7 6.9 6.8 6.5 6.7 7.7 7.6 7.5 7.7 7.8 7.7 6.8 6.8 5.7 5.6 5.6 5.0 5.0 4.9 4.4 4.1 4.1 4.5 5.1 5.2 5.7 5.3 4.6 4.2 4.3 2.6 3.0 4.1 4.5 5.0 5.8 7.2 7.0 9.2 9.6 9.8 9.6 8.2 7.4 9.0
6.5 6.5 6.5 6.5 6.8 6.5 6.5 6.5 6.8 7.7 7.5 7.4 7.7 7.9 7.9 8.1 6.7 5.8 5.5 5.0 5.0 4.9 4.8 4.6 4.3 4.6 4.9 5.4 5.9 6.1 6.3 5.5 5.8 5.4 5.0 4.9 4.5 4.6 5.9 6.8 7.9 8.2 8.5 8.9 8.2 9.3 9.1 7.6 6.5
6.5 6.5 6.5 6.5 6.5 6.5 6.5 6.5 6.6 7.3 7.4 7.4 7.7 7.9 8.0 8.0 7.7 6.5 5.8 4.8 4.7 4.8 4.7 4.5 4.9 5.1 5.6 5.9 6.4 7.5 9.0 6.6 5.0 5.3 5.2 5.2 5.5 5.2 5.7 5.1 5.5 5.3 7.1 6.8 7.1 7.4 8.9 7.2 7.3
6.5 6.5 6.5 6.5 6.5 6.5 6.5 6.5 6.5 7.0 7.3 7.3 7.6 7.8 7.9 8.0 8.4 5.9 5.5 5.3 5.0 4.9 4.8 4.9 5.1 5.4 5.8 6.2 6.4 7.1 4.9 4.7 5.8 5.3 5.0 4.9 5.2 5.4 5.7 5.3 5.7 5.4 5.5 6.6 7.0 7.1 6.8 7.9 6.6
6.5 6.5 6.5 6.5 6.5 6.5 6.5 6.5 6.5 6.8 7.0 7.3 7.4 7.7 7.8 8.0 8.1 6.0 5.5 5.6 5.5 4.9 4.7 4.8 5.1 5.3 5.6 5.7 5.6 5.1 4.8 5.2 5.1 5.2 5.1 4.5 4.8 4.6 5.3 5.2 5.3 5.6 5.5 5.8 5.6 5.6 5.9 6.0 6.1
6.5 6.5 6.5 6.5 6.5 6.5 6.5 6.5 6.5 6.6 7.1 7.4 7.6 7.8 7.9 7.9 7.9 8.1 5.8 5.9 5.4 5.3 4.9 4.6 4.8 5.2 5.1 4.9 5.5 5.8 5.7 6.1 6.4 6.1 5.6 4.6 4.6 4.3 4.4 4.6 4.9 5.4 5.2 4.8 4.9 5.2 5.5 4.5 6.1
6.5 6.5 6.5 6.5 6.5 6.5 6.5 6.5 6.5 6.5 6.5 6.7 7.2 7.6 7.7 7.8 8.0 8.3 6.8 5.9 5.6 5.4 4.4 4.6 5.1 5.0 5.2 4.8 5.3 5.7 6.3 6.5 5.5 5.4 5.3 5.3 4.8 4.5 4.3 4.5 4.9 5.2 5.3 5.1 5.0 5.2 5.4 5.9 6.2
6.5 6.5 6.5 6.5 6.5 6.5 6.5 6.5 6.5 6.5 6.5 6.5 6.9 7.3 7.7 7.7 7.6 7.8 6.3 6.1 5.6 5.1 5.1 5.4 5.4 5.2 5.0 4.8 4.9 5.6 5.8 5.5 5.3 5.3 5.4 5.4 5.2 4.7 4.4 4.3 4.6 4.9 4.9 4.7 4.5 4.6 4.8 5.1 5.7
6.5 6.5 6.5 6.5 6.5 6.5 6.5 6.5 6.5 6.5 6.5 6.5 6.8 7.4 7.5 7.2 6.9 6.9 6.5 5.7 5.8 5.5 5.5 5.7 5.7 5.6 5.3 5.1 5.0 5.1 5.3 5.4 5.7 5.7 6.0 5.8 5.6 5.3 4.6 4.3 4.2 4.4 4.6 4.5 4.3 4.4 4.7 5.2 5.9
6.5 6.5 6.5 6.5 6.5 6.5 6.5 6.5 6.5 6.5 6.5 6.6 6.6 7.2 7.6 7.5 6.8 6.4 5.7 5.5 6.0 5.6 5.5 5.7 5.8 5.9 5.6 5.3 4.9 4.6 4.9 5.2 5.5 5.5 5.5 5.3 5.6 5.5 4.5 3.9 4.0 4.3 3.9 3.8 3.8 3.7 3.6 3.9 4.5
6.5 6.5 6.5 6.5 6.5 6.5 6.5 6.5 6.5 6.5 7.0 7.2 7.3 7.4 6.7 6.8 6.7 6.6 5.9 5.8 5.4 5.5 5.9 6.0 5.9 6.0 5.8 5.7 5.2 4.9 5.0 5.4 5.4 5.0 4.9 5.0 5.2 5.0 4.1 4.0 4.1 4.0 4.0 4.2 4.3 4.5 4.3 4.2 4.0
6.5 6.5 6.5 6.5 6.5 6.5 6.5 6.5 6.5 6.5 6.5 6.9 7.1 7.2 7.4 6.7 5.7 5.2 5.1 5.2 5.6 5.7 5.8 5.7 5.8 5.5 5.5 5.6 5.5 5.6 5.7 5.3 5.5 4.8 4.8 5.1 4.9 5.2 4.3 3.6 3.7 3.6 3.5 3.4 3.8 4.4 4.7 5.0 5.0
6.5 6.5 6.5 6.5 6.5 6.5 6.5 6.5 6.5 6.5 6.5 6.5 6.7 7.0 7.4 6.8 5.5 5.0 4.9 5.0 5.1 5.5 6.0 5.9 5.5 5.7 5.9 5.5 5.7 6.0 6.0 5.6 5.5 5.3 5.3 4.9 4.8 4.4 4.4 4.5 4.4 4.4 4.1 3.9 4.1 4.5 4.6 4.9 5.2
6.5 6.5 6.5 6.5 6.5 6.5 6.5 6.5 6.5 6.5 6.5 6.5 6.8 7.2 7.0 6.1 5.8 5.5 5.0 4.9 5.0 5.3 5.5 5.8 5.8 5.8 5.8 5.6 5.7 5.5 5.5 5.2 5.1 5.1 5.3 5.4 5.3 5.2 5.2 5.0 4.7 4.6 4.5 4.6 4.6 4.8 5.0 5.0 5.2
6.5 6.5 6.5 6.5 6.5 6.5 6.5 6.5 6.5 6.5 6.7 6.9 7.0 7.2 7.3 5.8 5.5 5.4 5.1 5.0 4.9 5.1 5.5 5.5 5.8 5.7 5.7 5.9 5.7 5.5 5.8 5.3 5.2 5.4 5.3 5.2 4.9 4.7 4.5 4.4 4.4 4.6 4.7 4.8 5.1 5.5 5.7 5.7 5.8
Wind_Speed
3 3 3 4 5 4 5 5 1 8 8 3 3 1 6 11 3 3 5 7 7 7 12 15 14 7 5 5 5 3 2 2 2 3 3 4 3 3 4 4 3 3 3 2 4 5 5 3 6
3 3 3 2 4 7 6 6 9 6 8 11 9 6 5 5 6 7 5 9 9 10 11 16 19 12 8 7 6 4 3 1 0 1 2 3 4 5 4 4 4 4 4 4 5 6 9 7 8
4 1 3 4 3 6 5 9 11 12 9 4 5 6 3 5 6 4 6 6 8 11 12 17 18 19 17 12 10 9 7 4 3 4 3 4 5 5 6 5 6 5 6 6 7 7 11 10 10
5 3 2 5 7 3 4 11 11 11 4 2 8 8 5 5 2 5 5 6 7 10 12 16 18 18 17 16 14 13 11 9 7 6 7 8 7 7 7 7 7 6 7 7 8 9 11 11 10
2 3 4 4 5 5 6 9 11 9 5 8 2 6 6 5 8 8 7 8 8 10 12 14 18 17 17 16 16 15 13 12 10 8 7 8 7 6 7 7 8 8 8 8 8 7 8 11 11
4 3 7 9 7 6 7 6 8 7 6 6 6 9 6 7 6 7 7 9 11 10 12 13 14 16 15 16 16 15 14 13 12 11 9 8 7 7 8 8 8 8 9 10 8 9 9 11 13
3 4 6 9 11 8 6 6 9 8 10 6 7 5 7 9 7 7 7 8 10 11 11 12 12 13 12 13 17 16 14 14 13 12 11 10 8 7 7 8 8 9 10 10 10 10 11 11 14
1 1 7 7 14 7 9 6 5 6 6 6 1 4 7 11 8 8 7 7 8 10 11 12 11 12 11 10 13 13 13 13 12 12 12 11 9 3 6 8 7 7 10 10 10 11 12 13 14
1 4 7 8 14 10 11 7 3 2 8 3 2 4 9 11 8 7 5 5 5 7 9 11 12 12 12 10 11 11 10 9 9 10 10 10 6 7 8 8 8 10 10 11 12 12 13 14 16
2 3 5 3 6 12 14 10 10 7 9 5 8 10 9 8 7 5 4 4 6 7 8 9 10 12 12 10 11 10 10 9 9 9 11 9 9 9 10 8 9 10 10 11 12 12 13 14 16
2 2 6 3 3 13 11 8 3 9 7 6 11 13 10 9 7 6 5 4 5 5 6 8 9 11 11 10 10 8 8 9 8 9 10 9 9 8 9 9 8 8 8 10 11 11 12 12 13
5 5 2 5 4 7 10 8 6 3 4 4 11 11 9 8 7 5 4 3 4 5 7 8 9 9 10 10 9 9 8 9 8 10 10 10 8 8 8 8 10 9 9 9 8 10 13 15 15
7 6 6 6 8 7 7 5 3 5 6 9 10 8 9 7 7 6 3 2 3 6 7 8 9 9 10 9 9 8 8 8 9 9 9 10 8 6 9 8 9 10 11 10 9 9 8 9 11
7 12 10 6 6 4 6 4 4 5 8 8 8 8 8 8 7 6 4 1 3 4 6 7 8 9 10 8 8 6 7 8 8 10 12 11 9 8 7 7 7 9 10 11 11 9 9 9 9
14 12 9 7 3 3 1 4 5 7 9 9 8 7 7 7 7 5 3 1 3 4 5 7 8 9 8 7 7 5 6 6 6 8 10 11 11 11 10 7 7 10 11 13 11 10 10 8 9
6 6 7 3 2 1 3 9 6 6 10 12 10 8 8 8 7 5 3 1 2 4 6 6 6 7 7 6 6 5 4 5 5 6 7 9 10 10 8 5 5 10 11 10 7 8 8 8 9
1 7 7 5 3 2 4 3 6 6 8 10 12 11 10 10 8 7 4 1 2 3 5 6 7 7 7 6 5 3 3 4 5 7 7 9 8 10 8 6 7 10 7 6 7 7 7 5 5
10 7 5 6 2 1 3 7 4 5 10 12 12 12 13 12 12 9 6 3 1 1 3 5 5 6 7 4 3 1 2 5 6 7 9 10 9 9 9 7 9 11 6 6 7 8 7 3 6
9 12 10 4 3 2 4 10 10 8 9 13 13 13 13 13 9 9 7 5 3 1 2 3 5 5 5 4 3 3 3 4 4 6 9 10 11 11 10 8 8 8 6 7 9 8 8 5 9
9 14 5 5 2 2 3 13 13 12 15 16 15 15 15 13 11 11 10 6 3 1 2 3 4 5 5 4 3 1 1 2 3 5 7 9 10 11 10 9 7 8 6 8 9 9 5 4 7
10 6 5 4 3 3 7 7 7 4 8 10 12 12 12 15 15 13 11 8 4 2 1 2 2 3 3 4 2 1 2 0 0 3 4 9 10 11 11 11 8 6 6 6 8 9 9 5 6
5 4 6 6 3 1 5 3 4 4 7 8 9 10 10 9 10 11 11 8 6 3 2 1 1 2 2 3 2 2 1 1 2 3 4 5 9 11 11 10 10 8 6 7 7 7 7 7 6
6 5 6 4 4 1 2 2 3 1 5 5 9 8 6 6 9 11 10 8 6 4 3 3 3 3 1 1 1 0 2 2 1 2 3 4 6 8 9 9 8 7 5 6 7 7 8 5 5
12 7 5 4 1 2 2 2 6 2 1 2 1 7 5 6 8 8 7 6 6 5 5 5 5 4 3 2 1 1 1 1 1 1 2 3 3 4 7 8 9 9 7 7 6 7 8 7 6
1 3 2 1 1 2 2 3 8 1 3 3 3 1 5 7 8 9 10 9 8 9 8 7 8 8 6 6 4 3 2 2 1 0 2 2 3 3 5 7 7 5 7 7 6 5 5 6 5
2 1 1 2 3 1 1 6 1 1 2 4 5 3 3 7 8 9 10 11 11 10 11 10 10 9 8 6 5 4 4 3 1 0 0 1 2 3 5 6 6 6 6 6 6 4 4 4 4
3 1 2 4 2 2 1 5 6 3 9 8 4 4 4 4 8 12 12 11 10 11 13 12 11 10 9 8 6 6 4 4 3 2 1 2 3 3 4 4 4 4 5 5 4 4 4 5 5
2 7 2 1 2 3 3 4 3 5 6 2 5 6 5 7 8 9 10 11 11 12 11 12 12 12 10 9 7 6 6 5 4 4 4 4 4 4 4 4 4 5 5 5 4 4 4 5 4
3 3 2 1 2 1 3 2 1 1 3 3 3 4 5 6 7 9 10 11 11 12 12 13 13 14 11 10 9 9 8 8 8 7 5 5 4 4 4 4 5 4 5 4 5 4 5 5 5
1 3 5 3 4 1 2 2 2 2 2 3 6 7 7 8 8 8 9 10 11 13 13 15 14 14 13 11 10 10 9 9 8 8 7 6 6 5 5 5 5 4 4 5 5 6 5 6 6
Wind_Direction
199 219 200 203 198 232 161 148 79 142 146 86 77 298 92 23 14 52 105 34 9 24 22 29 31 45 54 64 77 102 105 149 159 170 158 163 171 183 191 193 199 217 264 315 247 228 218 207 172
161 164 212 185 225 196 151 140 163 131 113 115 97 111 78 80 70 96 138 20 22 33 34 33 32 37 47 53 48 49 52 57 211 207 179 206 211 219 216 224 233 244 261 276 300 289 219 185 168
160 244 215 199 209 204 151 166 135 124 120 142 117 52 69 97 81 80 57 31 36 39 37 32 32 36 39 39 41 35 23 11 344 317 289 262 259 254 254 254 253 264 269 274 291 302 210 195 182
173 178 169 225 180 93 102 143 145 142 113 99 126 94 102 30 73 62 63 40 55 43 39 35 32 32 33 36 37 39 33 22 3 341 323 312 275 274 268 266 276 271 277 277 283 298 210 202 193
203 216 177 174 138 116 122 127 153 149 123 134 154 122 98 93 88 76 64 52 40 43 36 38 32 31 32 31 30 30 29 24 13 0 341 327 320 305 299 298 293 283 276 274 280 286 228 215 208
183 260 188 179 144 130 140 144 152 156 147 132 121 123 115 122 108 71 69 63 51 44 38 34 34 30 31 29 26 21 19 20 16 12 4 355 346 325 304 296 294 289 285 276 276 270 263 240 226
222 213 169 159 146 154 153 154 173 155 147 127 132 120 121 145 102 84 77 71 61 47 38 32 25 19 21 29 21 16 13 14 10 6 6 356 336 319 306 307 302 294 291 287 279 272 268 260 250
218 209 147 154 169 152 145 139 136 181 121 118 317 153 159 144 120 110 91 69 55 42 34 24 19 15 8 2 15 4 7 8 3 359 360 343 312 317 277 285 262 306 300 296 293 282 268 262 257
182 195 172 160 169 143 151 152 134 108 134 108 64 79 101 122 131 131 109 75 57 43 29 17 12 9 3 358 356 351 355 344 344 348 349 321 315 315 325 342 319 304 297 294 290 286 281 272 264
204 200 154 129 133 157 156 164 142 164 149 109 114 110 115 123 134 124 100 66 41 29 20 11 6 2 358 357 352 349 347 343 340 340 335 324 320 317 310 297 322 310 302 289 274 271 270 268 262
91 144 136 103 99 149 141 142 135 156 180 176 164 143 131 129 125 120 101 70 39 17 13 7 0 357 356 351 344 346 343 342 336 340 337 321 313 309 306 301 296 307 317 307 303 290 278 284 283
117 75 100 123 110 140 144 126 128 174 72 133 141 144 143 143 137 129 112 71 31 13 8 3 359 355 356 347 348 341 342 343 343 341 340 333 322 319 313 305 305 293 290 296 297 300 295 293 285
103 121 79 94 102 90 120 109 116 139 117 119 128 147 148 145 140 132 113 73 18 7 3 3 355 356 352 349 347 344 345 349 346 348 347 340 327 321 317 312 309 304 300 292 293 290 288 286 284
124 114 108 79 91 75 140 131 188 158 144 134 151 155 159 163 164 154 160 112 22 4 2 357 355 357 352 352 349 343 344 353 4 359 356 347 343 332 323 320 314 308 307 302 296 294 293 288 280
128 107 110 51 44 91 193 164 202 138 175 169 175 173 169 177 183 184 144 107 2 11 356 359 352 356 354 347 345 348 2 4 9 11 7 5 3 355 349 343 337 322 321 308 307 301 305 288 283
120 142 146 66 334 49 243 186 157 160 172 189 187 185 191 196 195 182 177 150 27 2 360 353 348 345 344 340 339 346 14 9 7 18 13 9 6 4 353 349 338 329 322 323 319 316 302 295 295
148 154 140 145 25 323 238 160 156 174 186 185 195 193 198 201 205 204 191 164 3 360 348 348 344 341 339 333 331 350 5 12 6 14 10 13 10 5 353 351 354 346 345 345 332 315 303 314 307
163 139 121 146 85 276 247 246 171 199 211 214 210 209 209 210 212 201 194 190 240 327 352 346 338 336 332 325 313 319 28 24 22 21 17 11 13 11 5 360 359 359 358 358 342 329 330 360 333
130 145 119 104 53 283 262 276 262 229 221 229 225 224 222 220 209 198 199 201 210 241 341 342 336 350 344 352 350 4 6 9 9 17 16 15 15 13 14 8 7 4 359 352 357 349 343 355 352
123 140 96 109 57 289 324 285 264 237 230 231 230 230 230 224 211 206 205 207 205 251 322 348 2 356 353 342 336 293 331 351 6 10 19 18 19 18 20 19 14 12 359 3 4 5 355 358 19
68 118 139 123 142 88 316 265 238 210 234 237 242 250 249 233 224 211 204 209 209 236 322 350 358 346 350 345 333 244 197 217 6 31 32 28 27 30 26 25 17 10 12 16 17 10 21 360 355
99 62 105 113 170 164 352 287 251 213 241 230 233 226 234 225 224 206 202 204 213 219 223 246 264 311 345 1 30 58 74 144 47 42 34 33 27 29 21 19 18 16 10 16 13 14 13 6 7
118 120 92 80 86 209 72 259 249 330 264 264 229 219 217 210 200 196 197 206 211 207 222 228 234 238 279 341 20 115 131 110 86 60 38 31 30 24 18 15 13 13 11 11 13 10 13 17 9
131 108 76 71 83 216 76 280 277 217 342 346 349 203 201 192 190 197 199 204 214 213 219 217 222 231 234 247 224 223 189 166 172 62 28 27 17 5 11 7 8 8 6 10 13 9 15 8 9
129 154 87 154 189 257 130 237 268 243 242 309 16 52 208 203 204 206 211 215 222 221 216 214 216 223 220 222 213 205 212 220 203 64 33 15 353 348 5 1 2 359 3 8 13 18 23 15 18
81 323 259 171 180 112 111 236 159 12 292 247 268 268 261 225 219 221 223 225 227 224 218 217 221 230 225 230 229 224 223 231 228 186 294 354 325 338 344 345 345 350 354 358 5 11 16 12 11
139 171 22 97 71 265 231 265 263 271 250 237 231 250 260 239 223 225 226 230 232 224 220 218 221 228 234 235 234 228 224 227 224 214 249 299 319 322 313 309 316 326 335 346 350 355 359 356 358
341 135 142 89 178 250 213 273 273 356 355 237 256 276 270 245 240 241 241 239 233 229 225 221 224 231 234 229 224 230 222 223 223 222 228 230 240 260 288 303 313 321 331 337 333 331 334 334 344
154 175 83 95 306 299 311 113 158 297 353 5 343 323 306 295 274 258 249 243 236 230 226 225 225 230 232 226 224 222 219 216 216 221 224 236 248 268 287 297 300 304 311 319 312 309 311 317 320
265 202 211 235 181 209 299 276 134 287 318 306 322 314 301 286 281 268 258 250 239 235 231 228 228 229 229 227 224 226 227 225 227 228 226 226 233 234 249 258 270 279 293 305 306 302 300 300 303